sat.trackr.live / text

‹ back to catalog

STARLINK-34059

NORAD 63872 · 2025-094J

PAYLOAD ACTIVE UNKNOWN

§ Identity

Operator
Country
US
Launch date
2025-05-10
Launch site
AFWTR
Launch vehicle
Mass (kg)
RCS (m²)

Purposes: comms

External: N2YO · Heavens-Above · Gunter

§ Orbital elements

Epoch: 2026-05-25T02:10:50.795616Z

Period
96.11 min
Inclination
70.0032°
Eccentricity
0.0002626
Mean motion
14.98319318 rev/d
Perigee alt
570.3 km
Apogee alt
573.9 km
Semi-major
6,950.2 km
B*
-2.9294e-5
RAAN
41.9785°
Arg perigee
270.8817°
Mean anomaly
89.2041°
Rev number
5,864

§ Raw data

STARLINK-340591 63872U 25094J   26145.09086569 -.00000442  00000+0 -29294-4 0  99982 63872  70.0032  41.9785 0002626 270.8817  89.2041 14.98319318 58647

JSON: /api/v1/satellites/63872 · /tle

For live sub-satellite position, see the globe view (requires WebGL).

§ Visibility from observer

Set your observer location to see the next 7 days of passes ≥ 10°. The values pass through the URL so the page stays shareable.

No JS? Fill the form by hand. The geolocation button needs JavaScript.